Home   Weather   Tychy   Past weeks

Flag for Poland Past Weather in Tychy, Poland — Yesterday and Last 2 Weeks

Now
27 °F

Clear.


Feels Like: 17 °F
Forecast: 31 / 43 °F
Wind: 9 mph from West

Location: Katowice Airport

Current Time: Feb 25, 2017 at 1:43:34 am

Latest Report: Feb 25, 2017 at 1:00 am


Visibility: 10 mi

Pressure: 29.95 "Hg

Humidity: 93%

Dew Point: 25 °F

Location of TychyLocation

Past Weather in Tychy — Graph

°F

Tychy Temperature Yesterday

Maximum temperature yesterday: 52 °F (at 12:00 am)
Minimum temperature yesterday: 27 °F (at 9:00 pm)
Average temperature yesterday: 40 °F

High & Low Weather Summary for the Past Weeks

 TemperatureHumidityPressure
High54 °F (Feb 23, 10:00 pm)100% (Feb 14, 11:30 pm)30.63 "Hg (Feb 14, 11:30 pm)
Low14 °F (Feb 11, 7:00 am)32% (Feb 15, 3:30 pm)29.30 "Hg (Feb 23, 10:00 pm)
Average32 °F82%30.15 "Hg
* Reported Feb 10 12:00 am — Feb 25 12:30 am, Tychy, Weather by CustomWeather, © 2017

Note: Actual official high and low records may vary slightly from our data, if they occured in-between our weather recording intervals... More about our weather records

Advertising

Tychy Weather History for the Previous 24 Hours

Scroll right to see more
 ConditionsComfort  
Time TempWeatherWind HumidityBarometerVisibility
12:30 am
Sat, Feb 25
27 °FClear.9 mph86%29.95 "Hg10 mi
12:00 am25 °FClear.8 mph86%29.95 "Hg10 mi
11:30 pm
Fri, Feb 24
27 °FClear.8 mph86%29.92 "Hg10 mi
11:00 pm27 °FClear.10 mph86%29.92 "Hg10 mi
10:30 pm27 °FClear.8 mph86%29.92 "Hg10 mi
10:00 pm28 °FClear.7 mph86%29.89 "Hg10 mi
9:30 pm28 °FPassing clouds.7 mph86%29.89 "HgN/A
9:00 pm27 °FClear.6 mph86%29.86 "Hg10 mi
8:30 pm30 °FPassing clouds.6 mph75%29.86 "HgN/A
8:00 pm28 °FClear.8 mph80%29.83 "Hg10 mi
7:30 pm32 °FPassing clouds.8 mph75%29.83 "HgN/A
7:00 pm32 °FPassing clouds.13 mph80%29.80 "HgN/A
6:30 pm32 °FPassing clouds.13 mph80%29.77 "HgN/A
6:00 pm34 °FPassing clouds.17 mph70%29.74 "HgN/A
5:30 pm34 °FPassing clouds.20 mph75%29.74 "HgN/A
5:00 pm36 °FPartly sunny.22 mph70%29.68 "HgN/A
4:30 pm36 °FPassing clouds.22 mph75%29.65 "HgN/A
4:00 pm36 °FScattered clouds.25 mph75%29.65 "HgN/A
3:30 pm36 °FRain showers. Partly sunny.25 mph81%29.62 "Hg1 mi
3:00 pm39 °FBroken clouds.25 mph65%29.59 "HgN/A
2:30 pm39 °FSprinkles. Broken clouds.25 mph65%29.59 "HgN/A
2:00 pm41 °FBroken clouds.30 mph57%29.56 "HgN/A
1:30 pm41 °FSprinkles. Broken clouds.28 mph61%29.56 "HgN/A
1:00 pm41 °FSprinkles. Scattered clouds.29 mph61%29.53 "HgN/A
12:30 pm43 °FSprinkles. Mostly cloudy.29 mph57%29.53 "HgN/A
12:00 pm43 °FPartly sunny.28 mph57%29.50 "HgN/A
11:30 am41 °FMore clouds than sun.20 mph66%29.50 "HgN/A
11:00 am41 °FSprinkles. Scattered clouds.30 mph61%29.47 "HgN/A
10:30 am45 °FSprinkles. Broken clouds.29 mph53%29.45 "HgN/A
10:00 am45 °FPartly sunny.25 mph53%29.45 "HgN/A
9:30 am45 °FPassing clouds.23 mph53%29.42 "HgN/A
9:00 am45 °FPassing clouds.24 mph49%29.42 "HgN/A
8:30 am43 °FPassing clouds.21 mph57%29.39 "HgN/A
8:00 am45 °FPassing clouds.30 mph49%29.39 "HgN/A
7:30 am45 °FSunny.24 mph49%29.39 "Hg10 mi
7:00 am43 °FSunny.23 mph53%29.36 "Hg10 mi
6:30 am43 °FClear.21 mph57%29.36 "Hg10 mi
6:00 am43 °FClear.23 mph57%29.36 "Hg10 mi
5:30 am45 °FClear.32 mph53%29.33 "Hg10 mi
5:00 am45 °FClear.35 mph53%29.33 "Hg10 mi
4:30 am46 °FPassing clouds.25 mph66%29.33 "HgN/A
4:00 am48 °FPassing clouds.22 mph62%29.30 "HgN/A
3:30 am48 °FSprinkles. Passing clouds.16 mph58%29.30 "HgN/A
3:00 am48 °FClear.15 mph58%29.30 "Hg10 mi
2:30 am50 °FClear.16 mph54%29.30 "Hg10 mi
2:00 am50 °FClear.17 mph54%29.30 "Hg10 mi
1:30 am50 °FClear.20 mph54%29.30 "Hg10 mi
1:00 am50 °FClear.16 mph54%29.30 "Hg10 mi
Weather by CustomWeather, © 2017

See weather overviewHow to use our weather pages